TimeCDT,TemperatureF,Dew PointF,Humidity,Sea Level PressureIn,VisibilityMPH,Wind Direction,Wind SpeedMPH,Gust SpeedMPH,PrecipitationIn,Events,Conditions,WindDirDegrees,DateUTC
12:53 AM,73.9,66.0,76,30.03,10.0,Calm,Calm,-,N/A,,Clear,0,2013-09-17 05:53:00
1:53 AM,73.9,66.9,79,30.04,10.0,Calm,Calm,-,N/A,,Clear,0,2013-09-17 06:53:00
2:53 AM,72.0,68.0,87,30.03,10.0,Calm,Calm,-,N/A,,Clear,0,2013-09-17 07:53:00
3:53 AM,71.1,68.0,90,30.02,10.0,Calm,Calm,-,N/A,,Clear,0,2013-09-17 08:53:00
4:53 AM,71.1,68.0,90,30.02,10.0,Calm,Calm,-,N/A,,Clear,0,2013-09-17 09:53:00
5:53 AM,70.0,68.0,93,30.02,10.0,Calm,Calm,-,N/A,,Clear,0,2013-09-17 10:53:00
6:53 AM,70.0,69.1,97,30.04,10.0,Calm,Calm,-,N/A,,Clear,0,2013-09-17 11:53:00
7:53 AM,73.9,70.0,87,30.05,10.0,Calm,Calm,-,N/A,,Clear,0,2013-09-17 12:53:00
8:53 AM,79.0,71.1,77,30.06,10.0,NE,3.5,-,N/A,,Clear,50,2013-09-17 13:53:00
9:53 AM,82.9,73.0,72,30.08,10.0,East,6.9,-,N/A,,Clear,80,2013-09-17 14:53:00
10:53 AM,87.1,70.0,57,30.08,10.0,Variable,3.5,-,N/A,,Clear,0,2013-09-17 15:53:00
11:53 AM,91.0,68.0,47,30.06,10.0,East,11.5,-,N/A,,Scattered Clouds,80,2013-09-17 16:53:00
12:53 PM,93.0,66.0,41,30.04,10.0,East,6.9,-,N/A,,Clear,100,2013-09-17 17:53:00
1:53 PM,93.9,64.0,37,30.01,10.0,SSE,10.4,16.1,N/A,,Mostly Cloudy,150,2013-09-17 18:53:00
2:53 PM,93.0,64.9,39,29.98,10.0,SE,6.9,-,N/A,,Scattered Clouds,130,2013-09-17 19:53:00
3:53 PM,93.0,64.0,38,29.95,10.0,East,6.9,-,N/A,,Partly Cloudy,100,2013-09-17 20:53:00
4:53 PM,93.9,61.0,33,29.93,10.0,SE,6.9,-,N/A,,Clear,130,2013-09-17 21:53:00
5:53 PM,91.9,62.1,37,29.93,10.0,SSE,5.8,-,N/A,,Clear,160,2013-09-17 22:53:00
6:53 PM,90.0,66.0,45,29.94,10.0,Calm,Calm,-,N/A,,Clear,0,2013-09-17 23:53:00
7:53 PM,86.0,64.0,48,29.95,10.0,NE,8.1,-,N/A,,Clear,40,2013-09-18 00:53:00
8:53 PM,82.9,66.9,58,29.96,10.0,ENE,4.6,-,N/A,,Mostly Cloudy,70,2013-09-18 01:53:00
9:53 PM,82.0,66.9,60,29.98,10.0,SSE,6.9,-,N/A,,Clear,160,2013-09-18 02:53:00
10:53 PM,81.0,66.9,62,29.99,10.0,Calm,Calm,-,N/A,,Clear,0,2013-09-18 03:53:00
11:53 PM,79.0,66.9,66,29.99,10.0,Calm,Calm,-,N/A,,Clear,0,2013-09-18 04:53:00